Latest Weather Observations for Camden

IDN60801

Issued at 10:05 am EST Tuesday 23 September 2014 (issued every 30 minutes, with the page automatically refreshed every 10 minutes)

About weather observations | Map of weather stations | Latest weather observations for NSW | Other Formats
Station Details ID: 068192 Name: CAMDEN AIRPORT AWS Lat: -34.04 Lon: 150.69 Height: 73.9 m
Data from the previous 72 hours. | See also: Recent months at Camden
Date/Time
EST
Temp
°C
App
Temp
°C
Dew
Point
Rel
Hum
%
Delta-T
°C
Wind Press
QNH
hPa
Press
MSL
hPa
Rain
since 9 am
mm
Dir
 
Spd
km/h
Gust
km/h
Spd
kts
Gust
kts
23/10:00am 17.8 16.0 7.8 52 5.1 N 7 9 4 5 1029.6 1029.5 0.0
23/09:30am 16.5 15.0 8.5 59 4.1 NNW 6 9 3 5 1030.0 1029.9 0.0
23/09:00am 15.0 13.7 9.1 68 3.0 SW 6 7 3 4 1030.3 1030.2 0.0
23/08:30am 12.7 11.7 8.8 77 2.0 S 4 7 2 4 1030.5 1030.4 0.0
23/08:00am 10.6 9.3 7.8 83 1.3 SSE 4 7 2 4 1030.6 1030.5 0.0
23/07:30am 9.0 8.5 7.8 92 0.6 CALM 0 6 0 3 1030.6 1030.5 0.0
23/07:00am 6.6 5.8 6.5 99 0.0 CALM 0 0 0 0 1030.7 1030.6 0.0
23/06:51am 6.1 5.2 6.0 99 0.0 CALM 0 0 0 0 1030.7 1030.6 0.0
23/06:30am 5.2 4.1 5.1 99 0.0 CALM 0 0 0 0 1030.4 1030.3 0.0
23/06:00am 4.3 3.0 4.2 99 0.0 CALM 0 4 0 2 1030.1 1030.0 0.0
23/05:47am 4.3 2.3 4.2 99 0.0 S 4 6 2 3 1030.1 1030.0 0.0
23/05:46am 4.3 2.3 4.2 99 0.0 S 4 6 2 3 1030.1 1030.0 0.0
23/05:30am 4.5 2.5 4.4 99 0.0 SSE 4 6 2 3 1030.0 1029.9 0.0
23/05:21am 4.7 3.1 4.6 99 0.0 S 2 6 1 3 1030.0 1029.9 0.0
23/05:00am 4.8 3.6 4.7 99 0.0 CALM 0 0 0 0 1030.0 1029.9 0.0
23/04:30am 4.7 3.5 4.4 98 0.1 CALM 0 0 0 0 1029.8 1029.7 0.0
23/04:13am 5.6 3.4 5.5 99 0.0 S 6 7 3 4 1029.7 1029.6 0.0
23/04:01am 5.3 4.2 5.0 98 0.1 CALM 0 0 0 0 1029.6 1029.5 0.0
23/04:00am 5.3 4.2 5.0 98 0.1 CALM 0 0 0 0 1029.6 1029.5 0.0
23/03:30am 5.6 4.5 5.3 98 0.1 CALM 0 0 0 0 1029.3 1029.3 0.0
23/03:00am 5.7 4.6 5.3 97 0.2 CALM 0 0 0 0 1029.2 1029.2 0.0
23/02:30am 6.2 5.2 5.8 97 0.2 CALM 0 0 0 0 1029.3 1029.3 0.0
23/02:00am 6.4 5.5 6.0 97 0.2 CALM 0 0 0 0 1029.6 1029.5 0.0
23/01:30am 6.8 5.9 6.2 96 0.3 CALM 0 0 0 0 1029.8 1029.7 0.0
23/01:11am 7.0 6.2 6.4 96 0.3 CALM 0 0 0 0 1029.9 1029.8 0.0
23/01:00am 7.1 6.3 6.4 95 0.3 CALM 0 0 0 0 1029.9 1029.8 0.0
23/12:42am 7.3 6.5 6.6 95 0.3 CALM 0 0 0 0 1030.0 1029.9 0.0
23/12:38am 7.3 6.5 6.6 95 0.3 CALM 0 0 0 0 1030.0 1029.9 0.0
23/12:30am 7.6 6.9 6.9 95 0.3 CALM 0 0 0 0 1030.1 1030.0 0.0
23/12:23am 7.7 7.0 7.0 95 0.3 CALM 0 0 0 0 1030.2 1030.1 0.0
23/12:17am 7.7 7.0 7.0 95 0.3 CALM 0 0 0 0 1030.2 1030.1 0.0
23/12:00am 7.9 7.2 7.0 94 0.4 S 0 0 0 0 1030.2 1030.1 0.0
 
Date/Time
EST
Temp
°C
App
Temp
°C
Dew
Point
Rel
Hum
%
Delta-T
°C
Wind Press
QNH
hPa
Press
MSL
hPa
Rain
since 9 am
mm
Dir
 
Spd
km/h
Gust
km/h
Spd
kts
Gust
kts
22/11:56pm 8.0 7.3 7.1 94 0.4 CALM 0 0 0 0 1030.3 1030.2 0.0
22/11:30pm 8.3 6.6 7.4 94 0.4 S 6 9 3 5 1030.3 1030.2 0.0
22/11:00pm 8.6 7.2 7.2 91 0.7 SSW 4 6 2 3 1030.5 1030.4 0.0
22/10:30pm 9.4 8.9 8.0 91 0.7 CALM 0 7 0 4 1030.6 1030.5 0.0
22/10:00pm 9.5 8.9 7.6 88 0.9 CALM 0 0 0 0 1030.6 1030.5 0.0
22/09:30pm 10.1 8.2 7.7 85 1.2 S 7 9 4 5 1030.6 1030.5 0.0
22/09:00pm 10.6 10.2 8.2 85 1.2 CALM 0 6 0 3 1030.5 1030.4 0.0
22/08:30pm 11.1 10.6 8.0 81 1.5 CALM 0 0 0 0 1030.4 1030.3 0.0
22/08:00pm 13.4 11.5 7.4 67 2.9 ENE 7 9 4 5 1030.3 1030.2 0.0
22/07:30pm 13.0 11.9 8.3 73 2.3 ENE 4 6 2 3 1030.0 1029.9 0.0
22/07:00pm 14.4 13.6 8.1 66 3.1 SSE 2 6 1 3 1029.7 1029.6 0.0
22/06:30pm 15.4 13.8 7.9 61 3.8 ENE 6 9 3 5 1029.1 1029.1 0.0
22/06:00pm 16.3 13.8 8.0 58 4.2 ENE 11 13 6 7 1028.5 1028.5 0.0
22/05:30pm 17.6 14.3 8.2 54 4.8 ENE 15 22 8 12 1028.1 1028.1 0.0
22/05:00pm 18.6 15.3 8.0 50 5.4 ENE 15 24 8 13 1028.0 1028.0 0.0
22/04:30pm 19.4 15.1 7.8 47 6.0 ENE 20 26 11 14 1027.8 1027.8 0.0
22/04:00pm 20.9 18.3 4.0 33 8.1 E 7 13 4 7 1027.7 1027.7 0.0
22/03:30pm 21.2 18.2 4.3 33 8.2 E 9 17 5 9 1027.8 1027.8 0.0
22/03:00pm 20.8 17.7 3.5 32 8.2 SSE 9 15 5 8 1028.0 1028.0 0.0
22/02:30pm 20.9 17.4 3.6 32 8.3 E 11 15 6 8 1028.0 1028.0 0.0
22/02:00pm 20.6 17.3 4.6 35 7.7 NNE 11 20 6 11 1028.3 1028.3 0.0
22/01:30pm 20.9 18.5 5.3 36 7.7 N 7 17 4 9 1028.7 1028.7 0.0
22/01:00pm 20.6 18.5 6.5 40 7.1 NE 7 15 4 8 1029.1 1029.1 0.0
22/12:30pm 21.0 18.5 8.0 43 6.8 N 11 20 6 11 1029.8 1029.7 0.0
22/12:00pm 19.8 16.2 5.1 38 7.1 NW 13 17 7 9 1030.4 1030.3 0.0
22/11:30am 18.5 15.4 5.7 43 6.3 N 11 17 6 9 1031.0 1030.9 0.0
22/11:00am 19.1 16.1 5.9 42 6.5 N 11 19 6 10 1031.5 1031.5 0.0
22/10:30am 17.0 14.3 7.4 53 4.8 N 11 15 6 8 1032.0 1032.0 0.0
22/10:00am 16.4 15.6 8.1 58 4.2 NNW 2 9 1 5 1032.1 1032.1 0.0
22/09:30am 16.1 14.8 7.8 58 4.2 N 4 9 2 5 1032.3 1032.3 0.0
22/09:00am 16.7 15.7 8.9 60 4.0 NE 4 9 2 5 1032.3 1032.3 0.0
22/08:30am 15.0 13.6 8.7 66 3.2 S 6 9 3 5 1032.3 1032.3 0.0
22/08:00am 13.3 12.0 9.2 76 2.1 S 6 9 3 5 1032.2 1032.2 0.0
22/07:30am 11.7 11.4 8.7 82 1.5 CALM 0 0 0 0 1032.1 1032.1 0.0
22/07:00am 9.9 9.7 9.1 95 0.4 CALM 0 0 0 0 1031.9 1031.9 0.0
22/06:47am 9.1 8.8 8.6 97 0.2 CALM 0 0 0 0 1031.7 1031.7 0.0
22/06:30am 8.5 8.0 7.9 96 0.3 CALM 0 0 0 0 1031.5 1031.5 0.0
22/06:17am 8.6 8.2 8.2 97 0.2 CALM 0 0 0 0 1031.3 1031.3 0.0
22/06:11am 8.7 8.3 8.3 97 0.2 CALM 0 0 0 0 1031.2 1031.1 0.0
22/06:00am 8.6 8.2 8.2 97 0.2 CALM 0 0 0 0 1031.0 1030.9 0.0
22/05:30am 8.9 8.5 8.3 96 0.3 CALM 0 0 0 0 1030.8 1030.7 0.0
22/05:19am 8.8 8.4 8.2 96 0.3 CALM 0 0 0 0 1030.7 1030.6 0.0
22/05:18am 8.9 8.5 8.3 96 0.3 CALM 0 0 0 0 1030.6 1030.5 0.0
22/05:07am 8.7 8.2 7.9 95 0.4 CALM 0 0 0 0 1030.5 1030.4 0.0
22/05:00am 8.9 8.5 8.1 95 0.4 CALM 0 0 0 0 1030.5 1030.4 0.0
22/04:58am 8.9 8.5 8.1 95 0.4 CALM 0 0 0 0 1030.4 1030.3 0.0
22/04:52am 9.0 8.6 8.1 94 0.4 CALM 0 0 0 0 1030.3 1030.2 0.0
22/04:30am 9.5 9.2 8.7 95 0.4 CALM 0 0 0 0 1030.1 1030.0 0.0
22/04:00am 9.8 9.6 9.2 96 0.3 CALM 0 0 0 0 1030.0 1029.9 0.0
22/03:30am 9.5 9.3 9.0 97 0.2 CALM 0 0 0 0 1030.0 1029.9 0.0
22/03:00am 9.5 9.3 9.0 97 0.2 CALM 0 0 0 0 1029.9 1029.8 0.0
22/02:30am 9.3 9.0 8.7 96 0.3 CALM 0 6 0 3 1030.0 1029.9 0.0
22/02:25am 9.2 8.5 8.4 95 0.4 N 2 6 1 3 1030.0 1029.9 0.0
22/02:14am 8.8 7.2 7.9 94 0.4 N 6 7 3 4 1030.0 1029.9 0.0
22/02:00am 9.7 9.4 8.5 92 0.6 CALM 0 0 0 0 1030.1 1030.0 0.0
22/01:30am 10.3 9.2 8.6 89 0.8 S 4 6 2 3 1030.2 1030.1 0.0
22/01:00am 10.5 10.2 8.8 89 0.8 CALM 0 7 0 4 1030.6 1030.5 0.0
22/12:30am 10.9 9.9 8.8 87 1.0 SSE 4 6 2 3 1030.9 1030.8 0.0
22/12:00am 11.6 11.4 9.0 84 1.3 CALM 0 0 0 0 1030.9 1030.8 0.0
 
Date/Time
EST
Temp
°C
App
Temp
°C
Dew
Point
Rel
Hum
%
Delta-T
°C
Wind Press
QNH
hPa
Press
MSL
hPa
Rain
since 9 am
mm
Dir
 
Spd
km/h
Gust
km/h
Spd
kts
Gust
kts
21/11:30pm 11.6 10.3 9.2 85 1.2 SSE 6 9 3 5 1031.0 1030.9 0.0
21/11:00pm 11.3 11.1 8.9 85 1.2 CALM 0 0 0 0 1031.0 1030.9 0.0
21/10:30pm 11.1 10.8 8.8 86 1.1 CALM 0 0 0 0 1031.2 1031.1 0.0
21/10:00pm 11.9 11.6 8.7 81 1.6 CALM 0 6 0 3 1031.4 1031.4 0.0
21/09:30pm 12.3 12.1 9.1 81 1.6 CALM 0 0 0 0 1031.5 1031.5 0.0
21/09:00pm 12.2 11.9 8.5 78 1.8 CALM 0 0 0 0 1031.5 1031.5 0.0
21/08:30pm 11.8 11.5 8.6 81 1.6 CALM 0 0 0 0 1031.3 1031.3 0.0
21/08:00pm 11.8 11.5 8.6 81 1.6 CALM 0 0 0 0 1031.0 1030.9 0.0
21/07:30pm 11.9 11.3 7.4 74 2.2 CALM 0 0 0 0 1030.3 1030.2 0.0
21/07:00pm 13.3 11.6 7.5 68 2.8 SSE 6 7 3 4 1029.8 1029.7 0.0
21/06:30pm 13.6 11.7 7.6 67 3.0 SE 7 11 4 6 1028.8 1028.8 0.0
21/06:00pm 14.4 11.8 7.7 64 3.3 ESE 11 17 6 9 1028.3 1028.3 0.0
21/05:30pm 15.5 13.0 8.0 61 3.8 ESE 11 17 6 9 1027.8 1027.8 0.0
21/05:00pm 16.9 13.6 8.1 56 4.5 ESE 15 22 8 12 1027.2 1027.2 0.0
21/04:30pm 18.3 15.0 8.0 51 5.3 ESE 15 24 8 13 1026.8 1026.8 0.0
21/04:00pm 20.2 16.9 8.2 46 6.2 ENE 15 20 8 11 1026.5 1026.5 0.0
21/03:30pm 20.8 17.4 4.0 33 8.1 E 11 17 6 9 1026.4 1026.4 0.0
21/03:00pm 20.9 18.1 5.3 36 7.7 E 9 19 5 10 1026.6 1026.6 0.0
21/02:30pm 20.8 17.5 4.8 35 7.8 NE 11 22 6 12 1026.8 1026.8 0.0
21/02:00pm 20.4 17.9 4.0 34 7.8 E 6 11 3 6 1027.0 1027.0 0.0
21/01:30pm 20.7 18.5 5.1 36 7.7 NW 6 13 3 7 1027.5 1027.5 0.0
21/01:00pm 20.4 17.7 5.6 38 7.3 NNW 9 17 5 9 1028.1 1028.1 0.0
21/12:30pm 19.7 17.2 4.6 37 7.3 NE 7 11 4 6 1028.8 1028.8 0.0
21/12:00pm 19.7 17.2 4.6 37 7.3 NNW 7 13 4 7 1029.2 1029.2 0.0
21/11:30am 19.1 16.6 4.5 38 7.0 N 7 13 4 7 1029.8 1029.7 0.0
21/11:00am 18.5 16.0 3.6 37 7.0 ENE 6 11 3 6 1030.3 1030.2 0.0
21/10:30am 18.5 15.7 5.0 41 6.5 SE 9 13 5 7 1030.6 1030.5 0.0
21/10:00am 16.9 14.2 5.5 47 5.5 ESE 9 15 5 8 1030.9 1030.8 0.0
21/09:30am 16.8 13.9 6.6 51 5.0 SSE 11 17 6 9 1030.8 1030.7 0.0
21/09:00am 15.8 14.1 8.5 62 3.7 E 7 11 4 6 1030.9 1030.8 0.0
21/08:30am 13.7 12.0 8.3 70 2.7 SE 7 11 4 6 1030.7 1030.6 0.0
21/08:00am 10.8 9.7 7.1 78 1.8 S 2 7 1 4 1030.3 1030.2 0.0
21/07:30am 9.0 7.0 7.0 87 0.9 SSE 7 9 4 5 1030.0 1029.9 0.0
21/07:00am 7.1 5.3 7.0 99 0.0 SSE 6 7 3 4 1029.6 1029.5 0.0
21/06:30am 5.0 3.4 4.7 98 0.1 SE 2 7 1 4 1029.1 1029.1 0.0
21/06:09am 4.2 2.5 3.9 98 0.1 S 2 6 1 3 1028.7 1028.7 0.0
21/06:00am 4.7 3.5 4.4 98 0.1 CALM 0 0 0 0 1028.7 1028.7 0.0
21/05:40am 4.6 3.3 4.3 98 0.1 CALM 0 0 0 0 1028.5 1028.5 0.0
21/05:36am 4.7 3.5 4.4 98 0.1 CALM 0 0 0 0 1028.4 1028.4 0.0
21/05:30am 4.5 3.2 4.2 98 0.1 CALM 0 0 0 0 1028.4 1028.4 0.0
21/05:26am 4.6 3.3 4.3 98 0.1 CALM 0 0 0 0 1028.4 1028.4 0.0
21/05:24am 4.6 3.3 4.3 98 0.1 CALM 0 0 0 0 1028.4 1028.4 0.0
21/05:03am 4.5 3.2 4.1 97 0.2 CALM 0 0 0 0 1028.2 1028.2 0.0
21/05:00am 4.4 3.1 4.0 97 0.2 CALM 0 0 0 0 1028.2 1028.2 0.0
21/04:44am 4.6 3.3 4.3 98 0.1 CALM 0 0 0 0 1028.1 1028.1 0.0
21/04:34am 5.1 3.9 4.8 98 0.1 CALM 0 0 0 0 1028.0 1028.0 0.0
21/04:30am 4.9 3.7 4.5 97 0.2 CALM 0 0 0 0 1028.0 1028.0 0.0
21/04:14am 4.8 3.6 4.4 97 0.2 CALM 0 0 0 0 1028.0 1028.0 0.0
21/04:00am 5.3 3.4 4.9 97 0.2 S 4 7 2 4 1027.8 1027.8 0.0
21/03:30am 5.0 3.8 4.4 96 0.3 CALM 0 0 0 0 1027.7 1027.7 0.0
21/03:00am 6.0 5.0 5.6 97 0.2 CALM 0 0 0 0 1027.8 1027.8 0.0
21/02:43am 6.0 5.0 5.6 97 0.2 CALM 0 0 0 0 1027.9 1027.9 0.0
21/02:30am 6.0 5.0 5.4 96 0.3 CALM 0 0 0 0 1028.0 1028.0 0.0
21/02:16am 5.7 4.5 4.8 94 0.4 CALM 0 0 0 0 1028.1 1028.1 0.0
21/02:00am 6.2 5.1 5.3 94 0.4 CALM 0 0 0 0 1028.1 1028.1 0.0
21/01:30am 6.5 5.5 5.5 93 0.4 CALM 0 0 0 0 1028.4 1028.4 0.0
21/01:00am 6.6 5.5 5.1 90 0.7 CALM 0 0 0 0 1028.5 1028.5 0.0
21/12:30am 7.4 6.5 5.9 90 0.7 CALM 0 0 0 0 1028.5 1028.5 0.0
21/12:00am 7.7 6.9 6.3 91 0.6 CALM 0 0 0 0 1028.6 1028.6 0.0
 
Date/Time
EST
Temp
°C
App
Temp
°C
Dew
Point
Rel
Hum
%
Delta-T
°C
Wind Press
QNH
hPa
Press
MSL
hPa
Rain
since 9 am
mm
Dir
 
Spd
km/h
Gust
km/h
Spd
kts
Gust
kts
20/11:30pm 8.3 7.3 5.8 84 1.1 CALM 0 0 0 0 1028.5 1028.5 0.0
20/11:00pm 9.3 7.3 6.2 81 1.4 S 6 7 3 4 1028.4 1028.4 0.0
20/10:30pm 9.8 7.8 6.2 78 1.7 S 6 7 3 4 1028.4 1028.4 0.0
20/10:00pm 10.5 8.5 6.3 75 2.0 SW 6 7 3 4 1028.5 1028.5 0.0
20/09:30pm 10.8 10.1 7.1 78 1.8 CALM 0 0 0 0 1028.3 1028.3 0.0
20/09:00pm 11.2 10.4 6.5 73 2.2 CALM 0 0 0 0 1028.2 1028.2 0.0
20/08:30pm 10.8 9.4 7.3 79 1.7 WNW 4 7 2 4 1027.9 1027.9 0.0
20/08:00pm 11.5 10.9 7.2 75 2.1 CALM 0 0 0 0 1027.4 1027.4 0.0
20/07:30pm 11.9 11.0 6.2 68 2.7 CALM 0 0 0 0 1027.1 1027.1 0.0
20/07:00pm 12.2 11.4 6.3 67 2.8 CALM 0 0 0 0 1026.8 1026.8 0.0
20/06:30pm 13.2 11.9 6.1 62 3.4 ESE 2 6 1 3 1026.2 1026.2 0.0
20/06:00pm 13.7 10.2 5.6 58 3.8 SE 13 17 7 9 1025.7 1025.7 0.0
20/05:30pm 14.9 11.3 4.9 51 4.7 SE 13 19 7 10 1025.1 1025.1 0.0
20/05:00pm 16.0 12.4 5.0 48 5.2 SE 13 20 7 11 1024.4 1024.4 0.0
20/04:30pm 16.6 12.2 4.9 46 5.6 SE 17 26 9 14 1023.9 1023.9 0.0
20/04:00pm 17.4 12.8 5.7 46 5.7 SSE 19 26 10 14 1023.6 1023.6 0.0
20/03:30pm 18.4 14.3 6.3 45 6.0 ESE 17 24 9 13 1023.2 1023.2 0.0
20/03:00pm 18.7 15.0 6.2 44 6.2 ESE 15 26 8 14 1023.0 1023.0 0.0
20/02:30pm 18.8 14.7 6.3 44 6.2 E 17 22 9 12 1022.9 1022.9 0.0
20/02:00pm 20.0 15.0 6.4 41 6.8 E 22 28 12 15 1022.8 1022.8 0.0
20/01:30pm 20.2 17.2 4.3 35 7.7 NNW 9 15 5 8 1023.0 1023.0 0.0
20/01:00pm 19.5 16.7 5.2 39 7.0 SW 9 17 5 9 1023.2 1023.2 0.0
20/12:30pm 19.3 16.7 4.3 37 7.2 WNW 7 15 4 8 1023.5 1023.5 0.0
20/12:00pm 19.6 17.5 6.0 41 6.7 NE 6 20 3 11 1023.7 1023.7 0.0
20/11:30am 18.7 15.4 4.8 40 6.7 WSW 11 20 6 11 1024.1 1024.1 0.0
20/11:00am 18.3 15.6 5.5 43 6.2 S 9 17 5 9 1024.3 1024.3 0.0
20/10:30am 16.5 13.1 5.8 49 5.2 S 13 17 7 9 1024.5 1024.5 0.0

Other Formats:

Comma delimited format used in spreadsheet applications
http://www.bom.gov.au/fwo/IDN60801/IDN60801.94755.axf

JavaScript Object Notation format (JSON) in row-major order
http://www.bom.gov.au/fwo/IDN60801/IDN60801.94755.json